Showing default

LEMUR 2 TOMATOKECHUP, 60471

Orbit data source: Space-Track

LEMUR 2 TOMATOKECHUP, 60471 is an American payload satellite in SSO that was launched on Fri, 16 Aug 2024 UTC via an FALCON 9 launch vehicle from the Air Force Western Test Range (AFWTR). Payload-class satellites include a variety of spacecraft equipped with specific instruments for various scientific and technological missions. These include communications satellites like Starlink; space stations such as the ISS; scientific satellites like the Hubble; Earth observation satellites from companies like Planet Labs, Umbra, and HawkEye 360; GPS; miniature CubeSats for education and research; and military/defense satellites.

Loading next visibility...
Identifier
60471, 2024-149D
Orbit
SSO
Country
Flag of USUS
Related business
Manufacturer
Spire/Glasgow
Mission
Operational Commercial Communications
Bus & Motor
CUBESAT 16U, Unknown motor
Mass
22 kg wet, 22 kg dry
Launch date (UTC)
2024-08-16 (1 year ago)
Launch vehicle
FALCON 9
Launch site
Air Force Western Test Range (AFWTR)
Object type
Payload
Rocket body
Debris
Shape & HBR
Box + 4 Pan, 1.4 m
Radar Cross Section
0.326 m², Medium (>0.1 m² and < 1m²)

Expand to show TLE details & history
Last TLE update: 19 hours ago

TLE from 19 hours ago
0 LEMUR 2 TOMATOKECHUP
1 60471U 24149D   25318.22103622  .00016077  00000-0  54833-3 0  9992
2 60471  97.4009  35.3563 0000476 308.1166  52.0032 15.30431220 69228
Epoch: 2025-11-14T05:18Z
TLE epoch observation values (Epoch: 2025-11-14T05:18:17.529Z)
Latitude
-0°
Longitude
-97.78439°
Altitude
477.429 km
Speed
7.627 km/s
True Right ascension
02h 21m 25s
True Declination
0° 00' 00"
Sunlit
Object was in full shadow at epoch
Visualization orbit readout
Latitude
Unknown
Longitude
Unknown
Altitude
Unknown
Speed
Unknown
Apparent Right ascension
Unknown
Apparent Declination
Unknown
Sunlit
N/A
Visualization observer readout
Local Sidereal Time
21:22:15
Azimuth
Unknown
Elevation
Unknown
Doppler factor
Unknown
Orbital elements
Apogee altitude
471.803 km
Perigee altitude
471.15 km
Semi-major axis
6,849.613 km
Eccentricity
0.00005
Inclination
97.4009°
RAAN
35.3563°
Arg. of periapsis
308.1166°
True anomaly
52.0075°
Mean anomaly
52.0032°
Eccentric anomaly
52.00535°
Mean motion
3.82864 °/min
Orbital period
94.03 mins
BSTAR
0.00054833
Loading maneuver chart data...
Computing Atmospheric mass density...
Loading historical data...
Loading historical data...
Loading historical data...
Loading historical data...
Loading historical data...
Loading historical data...
Loading historical data...

Documentation

Showing up to 5 results
|